"Pseudo-MPEC" for P10MiCO

Created 2019 Feb 19 10:18:06 UT using Find_Orb

Click here for an explanation of pseudo-MPECs

 
 Astrometry: 
     P10MiCO  C2019 02 09w9jAstrometry93_K1HyRWCJs'redacted;l#(7QVQw'M`NJTr=gF51
     P10MiCO  C2019 02 092hSZclickg+kC(/.@lv0+R;(YhCherea8wZUlCqdr.+h$nPx`*tJF51
     P10MiCO  C2019 02 096Mer`forS;HEl(T1NQ\._$DH(ly'explanation-]UWs(Cliva7BF51

Station data:
(F51) Pan-STARRS 1, Haleakala  (N20.707235 W156.255910)  US/Hawaii.
   Observers N. Primak, A. Schultz, S. Watters, J. Thiel, T. Goggia. Measurer
   PS1 Science Consortium. 1.8-m Ritchey-Chrétien + CCD.

Orbital elements:  P10MiCO
   Perihelion 2018 Sep 29.783737 +/- 165 TT = 18:48:34 (JD 2458391.283737)
Epoch 2019 Feb  9.0 TT = JDT 2458523.5   Earth MOID: 0.3159   Ma: 0.0231
M  82.84719541 +/- 90               (J2000 ecliptic)          AutoNEOCP
n   0.62660366 +/- 0.356            Peri.  309.91735 +/- 90
a   1.35251085 +/- 0.512            Node   108.37066 +/- 60
e   0.0489485 +/- 0.278             Incl.    8.63461 +/- 24
P   1.57/574.51d           H 22.4   G  0.15   U 12.0  SR
q 1.28630747 +/- 0.811    Q 1.41871423 +/- 33.2
From 3 observations 2019 Feb. 9 (34.5 min); mean residual 0".06
Residuals in arcseconds: 
190209 F51  .00   .06-    190209 F51  .00   .12+    190209 F51  .00   .06-    

Ephemerides (geocentric):
Date (UTC) HH   RA              Dec         delta   r     elong  mag " sig PA
---- -- -- --  -------------   -----------  ------ ------ -----  --- ---- ---
2019 02 19 10  11 23 43.359   +27 28 49.37  .39051 1.3550 156.2 21.9  37d 167
2019 02 19 11  11 23 40.722   +27 29 50.30  .39050 1.3551 156.2 21.9  37d 167
2019 02 19 12  11 23 38.079   +27 30 51.19  .39049 1.3551 156.3 21.9  37d 167
2019 02 19 13  11 23 35.432   +27 31 52.03  .39048 1.3551 156.3 21.9  37d 167
2019 02 19 14  11 23 32.780   +27 32 52.83  .39048 1.3551 156.3 21.9  38d 167
2019 02 19 15  11 23 30.123   +27 33 53.58  .39047 1.3552 156.3 21.9  38d 167
2019 02 19 16  11 23 27.462   +27 34 54.29  .39047 1.3552 156.3 21.9  38d 166
2019 02 19 17  11 23 24.795   +27 35 54.96  .39046 1.3552 156.3 21.9  38d 166
2019 02 19 18  11 23 22.124   +27 36 55.58  .39046 1.3553 156.3 21.9  38d 166
2019 02 19 19  11 23 19.448   +27 37 56.15  .39045 1.3553 156.4 21.9  38d 166
2019 02 19 20  11 23 16.767   +27 38 56.68  .39045 1.3553 156.4 21.9  38d 166
2019 02 19 21  11 23 14.081   +27 39 57.16  .39044 1.3554 156.4 21.9  38d 166
2019 02 19 22  11 23 11.391   +27 40 57.60  .39044 1.3554 156.4 21.9  38d 166
2019 02 19 23  11 23 08.696   +27 41 57.99  .39043 1.3554 156.4 21.9  38d 165
2019 02 20 00  11 23 05.996   +27 42 58.34  .39043 1.3554 156.4 21.9  38d 165
2019 02 20 01  11 23 03.292   +27 43 58.64  .39043 1.3555 156.4 21.9  38d 165
2019 02 20 02  11 23 00.582   +27 44 58.89  .39042 1.3555 156.4 21.9  38d 165
2019 02 20 03  11 22 57.868   +27 45 59.10  .39042 1.3555 156.5 21.9  38d 165
2019 02 20 04  11 22 55.150   +27 46 59.26  .39042 1.3556 156.5 21.9  38d 165
2019 02 20 05  11 22 52.426   +27 47 59.37  .39041 1.3556 156.5 21.9  38d 165
2019 02 20 06  11 22 49.698   +27 48 59.43  .39041 1.3556 156.5 21.9  38d 165
2019 02 20 07  11 22 46.966   +27 49 59.45  .39041 1.3557 156.5 21.9  38d 165
2019 02 20 08  11 22 44.228   +27 50 59.42  .39041 1.3557 156.5 21.9  38d 164
2019 02 20 09  11 22 41.486   +27 51 59.34  .39041 1.3557 156.5 21.9  38d 164
2019 02 20 10  11 22 38.740   +27 52 59.22  .39041 1.3557 156.5 21.9  38d 164
2019 02 20 11  11 22 35.989   +27 53 59.05  .39040 1.3558 156.6 21.9  38d 164
2019 02 20 12  11 22 33.233   +27 54 58.82  .39040 1.3558 156.6 21.9  38d 164
2019 02 20 13  11 22 30.473   +27 55 58.55  .39040 1.3558 156.6 21.9  38d 164
2019 02 20 14  11 22 27.708   +27 56 58.23  .39040 1.3559 156.6 21.9  38d 164
2019 02 20 15  11 22 24.938   +27 57 57.86  .39040 1.3559 156.6 21.9  38d 164
2019 02 20 16  11 22 22.164   +27 58 57.45  .39040 1.3559 156.6 21.9  38d 164
2019 02 20 17  11 22 19.385   +27 59 56.98  .39040 1.3560 156.6 21.9  39d 164
2019 02 20 18  11 22 16.602   +28 00 56.46  .39041 1.3560 156.6 21.9  39d 164
2019 02 20 19  11 22 13.815   +28 01 55.89  .39041 1.3560 156.6 21.9  39d 163
2019 02 20 20  11 22 11.022   +28 02 55.28  .39041 1.3560 156.6 21.9  39d 163
2019 02 20 21  11 22 08.226   +28 03 54.61  .39041 1.3561 156.7 21.9  39d 163
2019 02 20 22  11 22 05.424   +28 04 53.89  .39041 1.3561 156.7 21.9  39d 163
2019 02 20 23  11 22 02.619   +28 05 53.13  .39041 1.3561 156.7 21.9  39d 163
2019 02 21 00  11 21 59.809   +28 06 52.31  .39042 1.3562 156.7 21.9  39d 163
2019 02 21 01  11 21 56.994   +28 07 51.44  .39042 1.3562 156.7 21.9  40d 163
2019 02 21 02  11 21 54.175   +28 08 50.52  .39042 1.3562 156.7 21.9  40d 163
2019 02 21 03  11 21 51.352   +28 09 49.55  .39042 1.3563 156.7 21.9  40d 163
2019 02 21 04  11 21 48.524   +28 10 48.52  .39043 1.3563 156.7 21.9  40d 163
2019 02 21 05  11 21 45.691   +28 11 47.45  .39043 1.3563 156.7 21.9  40d 164
2019 02 21 06  11 21 42.855   +28 12 46.32  .39044 1.3563 156.7 21.9  40d 164
2019 02 21 07  11 21 40.013   +28 13 45.14  .39044 1.3564 156.7 21.9  41d 164
2019 02 21 08  11 21 37.168   +28 14 43.91  .39044 1.3564 156.8 21.9  41d 164
2019 02 21 09  11 21 34.318   +28 15 42.63  .39045 1.3564 156.8 21.9  41d 164